EW4266 Weather Reports


time (UTC)temp
C
wind
direction
speed
KPH
gust
KPH
rain 1hr
cm
rain 24hr
cm
rain mn
cm
humidity
%
barometer
mb
20260504195115 20 205 16.1 25.7 0.00 0.00 0.00 43 1003.9
20260504194947 20 198 12.9 24.1 0.00 0.00 0.00 44 1003.9
20260504194728 19 165 9.7 38.6 0.00 0.00 0.00 44 1003.7
20260504194630 19 95 11.3 38.6 0.00 0.00 0.00 44 1003.7
20260504194533 19 215 17.7 38.6 0.00 0.00 0.00 43 1003.9
20260504194455 19 163 17.7 38.6 0.00 0.00 0.00 42 1003.9
20260504194418 19 120 16.1 38.6 0.00 0.00 0.00 42 1003.8
20260504194224 19 142 14.5 38.6 0.00 0.00 0.00 43 1003.9
20260504194127 19 146 19.3 38.6 0.00 0.00 0.00 44 1004.0
20260504194032 19 219 20.9 38.6 0.00 0.00 0.00 43 1003.9
20260504193954 19 145 17.7 35.4 0.00 0.00 0.00 44 1003.9
20260504193734 19 169 19.3 35.4 0.00 0.00 0.00 44 1004.0
20260504193637 19 159 14.5 35.4 0.00 0.00 0.00 44 1003.9
20260504193541 19 150 20.9 35.4 0.00 0.00 0.00 43 1003.9
20260504193441 19 167 20.9 37.0 0.00 0.00 0.00 42 1004.0
20260504193312 19 190 14.5 33.8 0.00 0.00 0.00 45 1004.0
20260504193228 19 171 12.9 33.8 0.00 0.00 0.00 44 1004.0
20260504193041 19 152 12.9 33.8 0.00 0.00 0.00 44 1004.0
20260504193004 19 150 11.3 33.8 0.00 0.00 0.00 44 1004.0
20260504192918 19 188 14.5 33.8 0.00 0.00 0.00 44 1004.1
20260504192729 19 133 16.1 33.8 0.00 0.00 0.00 44 1004.1
20260504192644 18 183 12.9 33.8 0.00 0.00 0.00 44 1004.1
20260504192515 18 174 14.5 25.7 0.00 0.00 0.00 44 1004.1
20260504192415 18 123 16.1 25.7 0.00 0.00 0.00 44 1004.1
20260504192239 18 184 14.5 25.7 0.00 0.00 0.00 44 1004.1
20260504192142 18 200 14.5 25.7 0.00 0.00 0.00 44 1004.1
20260504192028 19 156 16.1 25.7 0.00 0.00 0.00 43 1004.2
20260504191950 19 161 17.7 25.7 0.00 0.00 0.00 44 1004.2
20260504191904 19 108 17.7 25.7 0.00 0.00 0.00 43 1004.2
20260504191744 19 235 14.5 25.7 0.00 0.00 0.00 43 1004.2
20260504191647 19 146 12.9 25.7 0.00 0.00 0.00 44 1004.2
20260504191523 19 246 17.7 25.7 0.00 0.00 0.00 45 1004.1
20260504191427 19 192 19.3 27.4 0.00 0.00 0.00 43 1004.2
20260504191328 19 175 12.9 22.5 0.00 0.00 0.00 45 1004.2
20260504191253 19 163 9.7 22.5 0.00 0.00 0.00 45 1004.2
20260504191121 19 271 12.9 22.5 0.00 0.00 0.00 45 1004.1
20260504191024 19 219 12.9 22.5 0.00 0.00 0.00 45 1004.2
20260504190948 19 175 14.5 22.5 0.00 0.00 0.00 45 1004.2
20260504190831 18 202 11.3 22.5 0.00 0.00 0.00 44 1004.1
20260504190744 18 171 11.3 22.5 0.00 0.00 0.00 44 1004.1
20260504190640 18 126 16.1 22.5 0.00 0.00 0.00 45 1004.1
20260504190522 18 184 16.1 25.7 0.00 0.00 0.00 43 1004.2
20260504190445 19 172 16.1 27.4 0.00 0.00 0.00 44 1004.2
20260504190411 19 124 14.5 25.7 0.00 0.00 0.00 43 1004.2
20260504190232 19 194 12.9 19.3 0.00 0.00 0.00 45 1004.3
20260504190154 19 155 11.3 19.3 0.00 0.00 0.00 45 1004.3
20260504190018 18 212 11.3 25.7 0.00 0.00 0.00 46 1004.3
20260504185940 18 176 12.9 25.7 0.00 0.00 0.00 45 1004.3
20260504185809 18 218 14.5 25.7 0.00 0.00 0.00 45 1004.3
20260504185720 18 178 16.1 25.7 0.00 0.00 0.00 44 1004.3
20260504185524 18 146 12.9 25.7 0.00 0.00 0.00 45 1004.5
20260504185438 18 182 14.5 25.7 0.00 0.00 0.00 45 1004.5
20260504185346 18 156 14.5 25.7 0.00 0.00 0.00 46 1004.5
20260504185250 18 146 11.3 25.7 0.00 0.00 0.00 44 1004.5
20260504185149 18 102 8.0 27.4 0.00 0.00 0.00 44 1004.5
20260504185010 18 207 14.5 27.4 0.00 0.00 0.00 44 1004.6
20260504184926 18 163 16.1 27.4 0.00 0.00 0.00 44 1004.6
20260504184704 18 159 9.7 24.1 0.00 0.00 0.00 45 1004.6
20260504184625 18 230 8.0 24.1 0.00 0.00 0.00 45 1004.6
20260504184435 18 184 12.9 24.1 0.00 0.00 0.00 44 1004.7
20260504184329 18 219 14.5 24.1 0.00 0.00 0.00 45 1004.7
20260504184138 18 131 14.5 24.1 0.00 0.00 0.00 47 1004.8
20260504184031 18 190 11.3 24.1 0.00 0.00 0.00 45 1004.8
20260504183959 18 213 12.9 37.0 0.00 0.00 0.00 47 1004.8
20260504183824 18 157 12.9 37.0 0.00 0.00 0.00 46 1004.8
20260504183738 18 180 11.3 37.0 0.00 0.00 0.00 46 1004.9
20260504183610 17 209 8.0 37.0 0.00 0.00 0.00 46 1004.8
20260504183532 17 192 11.3 37.0 0.00 0.00 0.00 45 1004.8
20260504183335 17 198 12.9 37.0 0.00 0.00 0.00 45 1004.9
20260504183258 17 160 16.1 37.0 0.00 0.00 0.00 46 1004.9
20260504183136 17 163 22.5 37.0 0.00 0.00 0.00 44 1004.9
20260504183058 17 175 19.3 37.0 0.00 0.00 0.00 44 1004.9
20260504183015 17 139 14.5 30.6 0.00 0.00 0.00 46 1005.0
20260504182845 17 144 12.9 30.6 0.00 0.00 0.00 46 1005.0
20260504182748 17 220 14.5 30.6 0.00 0.00 0.00 47 1005.0
20260504182710 17 181 14.5 30.6 0.00 0.00 0.00 46 1005.0
20260504182613 17 205 16.1 30.6 0.00 0.00 0.00 45 1004.9
20260504182537 17 171 14.5 30.6 0.00 0.00 0.00 45 1005.0
20260504182409 17 164 16.1 30.6 0.00 0.00 0.00 46 1005.0
20260504182322 17 152 12.9 30.6 0.00 0.00 0.00 46 1005.1
20260504182152 17 137 9.7 22.5 0.00 0.00 0.00 47 1005.1
20260504182054 17 126 11.3 22.5 0.00 0.00 0.00 46 1005.1
20260504181939 17 144 14.5 22.5 0.00 0.00 0.00 45 1005.3
20260504181846 17 128 11.3 22.5 0.00 0.00 0.00 46 1005.2
20260504181725 17 170 11.3 19.3 0.00 0.00 0.00 46 1005.2
20260504181647 17 235 12.9 19.3 0.00 0.00 0.00 46 1005.2
20260504181610 17 217 12.9 19.3 0.00 0.00 0.00 46 1005.2
20260504181513 17 192 14.5 22.5 0.00 0.00 0.00 46 1005.1
20260504181436 17 217 14.5 22.5 0.00 0.00 0.00 46 1005.1
20260504181305 17 161 11.3 22.5 0.00 0.00 0.00 46 1005.1
20260504181218 17 157 11.3 22.5 0.00 0.00 0.00 47 1005.1
20260504181030 17 163 12.9 22.5 0.00 0.00 0.00 46 1005.2
20260504180943 17 178 14.5 22.5 0.00 0.00 0.00 46 1005.2
20260504180815 17 204 12.9 22.5 0.00 0.00 0.00 47 1005.3
20260504180736 17 173 12.9 22.5 0.00 0.00 0.00 48 1005.3
20260504180521 17 165 11.3 20.9 0.00 0.00 0.00 47 1005.3
20260504180445 17 169 9.7 20.9 0.00 0.00 0.00 47 1005.3
20260504180327 16 200 11.3 20.9 0.00 0.00 0.00 47 1005.4
20260504180249 16 246 11.3 20.9 0.00 0.00 0.00 47 1005.4
20260504180211 16 227 9.7 20.9 0.00 0.00 0.00 48 1005.5
20260504180113 16 205 6.4 20.9 0.00 0.00 0.00 47 1005.4
20260504180036 16 208 6.4 20.9 0.00 0.00 0.00 48 1005.4
20260504175906 16 161 9.7 20.9 0.00 0.00 0.00 47 1005.5
20260504175740 16 174 9.7 22.5 0.00 0.00 0.00 47 1005.5
20260504175628 16 242 8.0 16.1 0.00 0.00 0.00 48 1005.5
20260504175550 16 204 8.0 16.1 0.00 0.00 0.00 48 1005.5
20260504175419 16 184 9.7 16.1 0.00 0.00 0.00 47 1005.6
20260504175336 16 205 8.0 17.7 0.00 0.00 0.00 47 1005.5
20260504175206 16 157 9.7 22.5 0.00 0.00 0.00 48 1005.5
20260504175127 16 265 9.7 22.5 0.00 0.00 0.00 48 1005.5
20260504174929 16 167 8.0 22.5 0.00 0.00 0.00 48 1005.6
20260504174853 16 166 8.0 22.5 0.00 0.00 0.00 47 1005.6
20260504174735 16 156 6.4 22.5 0.00 0.00 0.00 48 1005.6
20260504174658 16 155 8.0 22.5 0.00 0.00 0.00 48 1005.6
20260504174620 16 185 12.9 22.5 0.00 0.00 0.00 48 1005.6
20260504174506 16 215 14.5 22.5 0.00 0.00 0.00 48 1005.6
20260504174430 16 137 14.5 20.9 0.00 0.00 0.00 48 1005.7
20260504174223 16 158 8.0 22.5 0.00 0.00 0.00 48 1005.7
20260504174143 16 152 8.0 22.5 0.00 0.00 0.00 48 1005.7
20260504174045 16 132 8.0 22.5 0.00 0.00 0.00 48 1005.7
20260504173939 16 157 9.7 22.5 0.00 0.00 0.00 48 1005.7
20260504173902 16 224 9.7 22.5 0.00 0.00 0.00 48 1005.8
20260504173744 16 249 12.9 22.5 0.00 0.00 0.00 47 1005.8
20260504173646 16 197 12.9 22.5 0.00 0.00 0.00 47 1005.8
20260504173608 16 250 12.9 22.5 0.00 0.00 0.00 47 1005.8
20260504173428 16 113 9.7 22.5 0.00 0.00 0.00 48 1005.9
20260504173328 16 91 14.5 22.5 0.00 0.00 0.00 47 1005.8
20260504173230 16 190 17.7 22.5 0.00 0.00 0.00 48 1005.8
20260504173152 16 175 16.1 22.5 0.00 0.00 0.00 48 1005.8
20260504173115 16 194 14.5 22.5 0.00 0.00 0.00 47 1005.9
20260504172939 16 179 8.0 22.5 0.00 0.00 0.00 48 1005.8
20260504172840 16 123 6.4 22.5 0.00 0.00 0.00 48 1005.8
20260504172724 16 184 4.8 27.4 0.00 0.00 0.00 48 1005.8
20260504172647 15 242 8.0 27.4 0.00 0.00 0.00 48 1005.8
20260504172529 15 144 11.3 27.4 0.00 0.00 0.00 47 1005.8
20260504172455 15 182 14.5 27.4 0.00 0.00 0.00 47 1005.8
20260504172416 15 152 14.5 27.4 0.00 0.00 0.00 47 1005.9
20260504172259 15 211 8.0 27.4 0.00 0.00 0.00 47 1005.9
20260504172139 15 168 8.0 27.4 0.00 0.00 0.00 47 1005.9
20260504172024 15 205 14.5 27.4 0.00 0.00 0.00 47 1005.9
20260504171945 15 169 17.7 27.4 0.00 0.00 0.00 48 1005.8
20260504171744 15 132 12.9 20.9 0.00 0.00 0.00 47 1005.9
20260504171638 15 184 9.7 22.5 0.00 0.00 0.00 47 1005.9
20260504171541 15 183 6.4 22.5 0.00 0.00 0.00 48 1005.9
20260504171444 15 234 8.0 32.2 0.00 0.00 0.00 47 1005.9
20260504171349 15 215 8.0 32.2 0.00 0.00 0.00 46 1005.9
20260504171311 15 196 8.0 32.2 0.00 0.00 0.00 46 1005.9
20260504171214 15 183 9.7 32.2 0.00 0.00 0.00 47 1006.0
20260504171136 15 161 8.0 32.2 0.00 0.00 0.00 46 1005.8
20260504171007 15 172 11.3 32.2 0.00 0.00 0.00 47 1005.9
20260504170921 15 244 14.5 32.2 0.00 0.00 0.00 47 1005.9
20260504170732 15 178 17.7 32.2 0.00 0.00 0.00 47 1006.0
20260504170626 15 157 14.5 30.6 0.00 0.00 0.00 46 1005.9
20260504170550 15 173 11.3 20.9 0.00 0.00 0.00 46 1005.9
20260504170504 15 133 11.3 20.9 0.00 0.00 0.00 46 1005.9
20260504170424 15 163 11.3 20.9 0.00 0.00 0.00 46 1006.0
20260504170236 15 146 9.7 24.1 0.00 0.00 0.00 46 1006.0
20260504170131 15 179 12.9 24.1 0.00 0.00 0.00 46 1006.1
20260504160445 11 153 8.0 12.9 0.00 0.00 0.00 37 1006.9
20260504160408 11 184 8.0 12.9 0.00 0.00 0.00 36 1006.9
20260504160314 11 149 9.7 12.9 0.00 0.00 0.00 37 1007.0
20260504160236 11 167 8.0 12.9 0.00 0.00 0.00 36 1007.0
20260504160105 11 190 4.8 11.3 0.00 0.00 0.00 34 1007.0
20260504151043 10 155 4.8 9.7 0.00 0.00 0.00 38 1007.3
20260504150946 10 211 4.8 9.7 0.00 0.00 0.00 40 1007.3
20260504150846 10 219 6.4 9.7 0.00 0.00 0.00 40 1007.3
20260504150809 10 229 4.8 9.7 0.00 0.00 0.00 39 1007.2
20260504150714 10 217 3.2 9.7 0.00 0.00 0.00 40 1007.2
20260504150614 10 193 3.2 4.8 0.00 0.00 0.00 40 1007.1
20260504150519 10 193 3.2 4.8 0.00 0.00 0.00 40 1007.2
20260504150323 10 205 1.6 4.8 0.00 0.00 0.00 40 1007.2
20260504150225 10 181 0.0 4.8 0.00 0.00 0.00 40 1007.3
20260504150127 10 203 1.6 4.8 0.00 0.00 0.00 40 1007.2
20260504141333 10 194 11.3 24.1 0.00 0.00 0.00 44 1006.7
20260504141136 10 173 12.9 24.1 0.00 0.00 0.00 44 1006.7
20260504141040 10 178 11.3 24.1 0.00 0.00 0.00 44 1006.6
20260504140922 10 175 14.5 24.1 0.00 0.00 0.00 44 1006.6
20260504140849 10 204 14.5 24.1 0.00 0.00 0.00 44 1006.6
20260504140723 10 176 11.3 22.5 0.00 0.00 0.00 43 1006.7
20260504140647 10 229 9.7 22.5 0.00 0.00 0.00 43 1006.7
20260504140530 10 216 8.0 22.5 0.00 0.00 0.00 43 1006.7
20260504140412 10 164 8.0 22.5 0.00 0.00 0.00 43 1006.7
20260504140346 10 167 8.0 22.5 0.00 0.00 0.00 44 1006.7
20260504140240 10 145 9.7 22.5 0.00 0.00 0.00 44 1006.7
20260504140204 10 153 11.3 22.5 0.00 0.00 0.00 44 1006.7
20260504140111 10 205 14.5 22.5 0.00 0.00 0.00 44 1006.7
20260504130821 10 174 12.9 30.6 0.00 0.00 0.00 40 1006.5
20260504130628 10 165 11.3 30.6 0.00 0.00 0.00 40 1006.4
20260504130550 10 234 14.5 30.6 0.00 0.00 0.00 40 1006.4
20260504130456 10 179 16.1 30.6 0.00 0.00 0.00 40 1006.4
20260504130417 10 150 17.7 33.8 0.00 0.00 0.00 40 1006.5
20260504130247 10 178 17.7 30.6 0.00 0.00 0.00 40 1006.4
20260504130142 10 172 16.1 30.6 0.00 0.00 0.00 39 1006.4
20260504130115 10 166 16.1 30.6 0.00 0.00 0.00 39 1006.5
20260504120238 9 175 12.9 29.0 0.00 0.00 0.00 23 1006.5
20260504120126 9 177 12.9 29.0 0.00 0.00 0.00 22 1006.5
20260504110659 8 162 12.9 24.1 0.00 0.00 0.00 1 1006.9
20260504110622 8 144 12.9 24.1 0.00 0.00 0.00 1 1006.8
20260504110505 8 157 12.9 24.1 0.00 0.00 0.00 1 1006.8
20260504110405 8 164 11.3 24.1 0.00 0.00 0.00 1 1006.8
20260504110217 8 162 11.3 24.1 0.00 0.00 0.00 1 1006.8
20260504110134 8 179 11.3 24.1 0.00 0.00 0.00 1 1006.8
20260504100534 7 180 8.0 16.1 0.00 0.00 0.00 1 1006.9
20260504100456 7 194 9.7 16.1 0.00 0.00 0.00 1 1006.9
20260504100418 7 186 9.7 16.1 0.00 0.00 0.00 1 1006.9
20260504100311 7 181 9.7 16.1 0.00 0.00 0.00 1 1007.0
20260504100120 7 116 9.7 16.1 0.00 0.00 0.00 1 1007.0
20260504090116 7 194 8.0 16.1 0.00 0.00 0.00 1 1007.3
20260504081953 7 193 8.0 16.1 0.00 0.00 0.00 1 1007.7
20260504081834 7 186 8.0 16.1 0.00 0.00 0.00 1 1007.6
20260504081729 7 209 6.4 16.1 0.00 0.00 0.00 1 1007.6
20260504081626 7 192 8.0 16.1 0.00 0.00 0.00 1 1007.6
20260504081526 7 170 6.4 17.7 0.00 0.00 0.00 1 1007.6
20260504081453 7 173 6.4 17.7 0.00 0.00 0.00 1 1007.6
20260504081335 7 203 6.4 17.7 0.00 0.00 0.00 1 1007.5
20260504081259 7 187 8.0 17.7 0.00 0.00 0.00 2 1007.5
20260504081225 7 204 9.7 20.9 0.00 0.00 0.00 2 1007.6
20260504081034 7 154 8.0 20.9 0.00 0.00 0.00 4 1007.7
20260504080928 7 207 8.0 20.9 0.00 0.00 0.00 4 1007.7
20260504080852 7 165 9.7 20.9 0.00 0.00 0.00 5 1007.7
20260504080757 7 187 9.7 20.9 0.00 0.00 0.00 5 1007.7
20260504080718 7 234 11.3 20.9 0.00 0.00 0.00 5 1007.7
20260504080525 7 164 12.9 20.9 0.00 0.00 0.00 7 1007.6
20260504080427 7 183 12.9 20.9 0.00 0.00 0.00 7 1007.6
20260504080323 7 175 12.9 20.9 0.00 0.00 0.00 7 1007.5
20260504080254 7 194 11.3 20.9 0.00 0.00 0.00 7 1007.6
20260504080136 7 186 11.3 20.9 0.00 0.00 0.00 8 1007.5
20260504070331 7 171 6.4 12.9 0.00 0.00 0.00 39 1007.7
20260504070254 7 187 4.8 12.9 0.00 0.00 0.00 39 1007.7
20260504070214 7 200 3.2 11.3 0.00 0.00 0.00 39 1007.6
20260504070117 7 140 3.2 6.4 0.00 0.00 0.00 38 1007.6
20260504060132 7 190 6.4 14.5 0.00 0.00 0.00 49 1008.1
20260504050731 7 165 6.4 16.1 0.00 0.00 0.00 51 1008.1
20260504050540 7 162 6.4 16.1 0.00 0.00 0.00 51 1008.0
20260504050438 7 171 8.0 16.1 0.00 0.00 0.00 51 1008.0
20260504050334 7 155 6.4 16.1 0.00 0.00 0.00 51 1008.0
20260504050255 7 160 6.4 16.1 0.00 0.00 0.00 51 1008.0
20260504050126 7 174 9.7 16.1 0.00 0.00 0.00 51 1008.0
20260504050019 7 163 8.0 17.7 0.00 0.00 0.00 51 1008.0
20260504045829 7 209 8.0 14.5 0.00 0.00 0.00 51 1008.0
20260504045743 7 182 6.4 14.5 0.00 0.00 0.00 51 1008.0
20260504045614 7 194 4.8 12.9 0.00 0.00 0.00 51 1008.1
20260504045535 7 157 4.8 12.9 0.00 0.00 0.00 51 1008.1
20260504045407 7 218 8.0 12.9 0.00 0.00 0.00 51 1008.1
20260504045223 7 192 9.7 12.9 0.00 0.00 0.00 51 1008.1
20260504045126 7 178 6.4 12.9 0.00 0.00 0.00 50 1008.1
20260504045026 7 190 6.4 11.3 0.00 0.00 0.00 50 1008.1
20260504044831 6 262 3.2 9.7 0.00 0.00 0.00 51 1008.2
20260504044732 6 229 3.2 9.7 0.00 0.00 0.00 50 1008.2
20260504044635 7 201 3.2 9.7 0.00 0.00 0.00 50 1008.2
20260504044535 7 192 3.2 9.7 0.00 0.00 0.00 50 1008.2
20260504044417 6 207 3.2 9.7 0.00 0.00 0.00 50 1008.2
20260504044333 6 205 4.8 11.3 0.00 0.00 0.00 50 1008.1
20260504044207 6 212 4.8 11.3 0.00 0.00 0.00 50 1008.1
20260504044107 6 162 3.2 12.9 0.00 0.00 0.00 50 1008.0
20260504043931 6 214 4.8 12.9 0.00 0.00 0.00 50 1008.2
20260504043852 6 199 6.4 12.9 0.00 0.00 0.00 50 1008.1
20260504043633 6 180 6.4 12.9 0.00 0.00 0.00 49 1008.0
20260504043557 6 164 6.4 12.9 0.00 0.00 0.00 49 1008.0
20260504043441 6 199 4.8 12.9 0.00 0.00 0.00 49 1008.1
20260504043403 6 150 6.4 12.9 0.00 0.00 0.00 49 1008.1
20260504043336 6 211 6.4 12.9 0.00 0.00 0.00 49 1008.1
20260504043143 6 196 4.8 11.3 0.00 0.00 0.00 49 1008.1
20260504043044 6 173 4.8 11.3 0.00 0.00 0.00 48 1008.1
20260504042938 6 180 6.4 11.3 0.00 0.00 0.00 48 1008.2
20260504042901 6 212 6.4 11.3 0.00 0.00 0.00 48 1008.2
20260504042805 6 183 6.4 11.3 0.00 0.00 0.00 48 1008.2
20260504042727 6 166 6.4 11.3 0.00 0.00 0.00 48 1008.2
20260504042529 6 171 8.0 11.3 0.00 0.00 0.00 47 1008.2
20260504042432 6 157 6.4 11.3 0.00 0.00 0.00 46 1008.2
20260504042335 6 196 6.4 11.3 0.00 0.00 0.00 46 1008.3
20260504042242 6 171 4.8 8.0 0.00 0.00 0.00 45 1008.3
20260504042155 6 208 4.8 8.0 0.00 0.00 0.00 45 1008.2
20260504042025 6 184 4.8 8.0 0.00 0.00 0.00 44 1008.2
20260504041924 6 180 4.8 9.7 0.00 0.00 0.00 44 1008.2
20260504041755 6 164 4.8 12.9 0.00 0.00 0.00 42 1008.2
20260504041629 5 188 4.8 12.9 0.00 0.00 0.00 40 1008.2
20260504041512 5 164 4.8 12.9 0.00 0.00 0.00 39 1008.3
20260504041444 5 200 4.8 12.9 0.00 0.00 0.00 37 1008.3
20260504041407 5 179 4.8 12.9 0.00 0.00 0.00 37 1008.3
20260504041311 5 184 4.8 12.9 0.00 0.00 0.00 37 1008.3
20260504041233 5 210 4.8 12.9 0.00 0.00 0.00 37 1008.3
20260504041108 5 215 6.4 12.9 0.00 0.00 0.00 32 1008.3
20260504040923 5 211 4.8 12.9 0.00 0.00 0.00 25 1008.3
20260504040835 5 209 4.8 9.7 0.00 0.00 0.00 22 1008.2
20260504040754 4 199 6.4 9.7 0.00 0.00 0.00 18 1008.2
20260504040713 4 198 6.4 11.3 0.00 0.00 0.00 11 1008.3
20260504040616 4 223 8.0 11.3 0.00 0.00 0.00 4 1008.4
20260504040518 3 173 6.4 11.3 0.00 0.00 0.00 1 1008.4
20260504040440 3 169 4.8 11.3 0.00 0.00 0.00 1 1008.4
20260504040309 3 197 3.2 11.3 0.00 0.00 0.00 1 1008.4
20260504040224 3 173 3.2 11.3 0.00 0.00 0.00 1 1008.4
20260504040037 3 201 4.8 11.3 0.00 0.00 0.00 1 1008.4
20260504035951 2 188 4.8 11.3 0.00 0.00 0.00 1 1008.3
20260504035741 2 185 4.8 8.0 0.00 0.00 0.00 1 1008.3
20260504035636 2 165 3.2 6.4 0.00 0.00 0.00 1 1008.3
20260504035505 2 204 3.2 4.8 0.00 0.00 0.00 1 1008.3
20260504035427 2 194 3.2 4.8 0.00 0.00 0.00 1 1008.3
20260504035230 1 194 1.6 4.8 0.00 0.00 0.00 1 1008.3
20260504035152 1 194 0.0 1.6 0.00 0.00 0.00 1 1008.3
20260504035056 1 194 0.0 1.6 0.00 0.00 0.00 1 1008.3
20260504035017 1 194 0.0 1.6 0.00 0.00 0.00 1 1008.3
20260504034831 1 194 0.0 1.6 0.00 0.00 0.00 1 1008.4
20260504034724 1 194 0.0 1.6 0.00 0.00 0.00 1 1008.4
20260504034648 1 194 0.0 1.6 0.00 0.00 0.00 1 1008.4
20260504034551 1 194 0.0 1.6 0.00 0.00 0.00 1 1008.4
20260504034514 1 194 0.0 1.6 0.00 0.00 0.00 1 1008.4
20260504034330 1 194 0.0 0.0 0.00 0.00 0.00 1 1008.4
20260504034231 1 194 0.0 0.0 0.00 0.00 0.00 1 1008.3
20260504034134 1 194 0.0 0.0 0.00 0.00 0.00 1 1008.4
20260504034057 1 194 0.0 0.0 0.00 0.00 0.00 1 1008.4
20260504033957 1 194 0.0 0.0 0.00 0.00 0.00 1 1008.4
20260504033906 1 194 0.0 0.0 0.00 0.00 0.00 1 1008.3
20260504033828 1 194 0.0 0.0 0.00 0.00 0.00 1 1008.3
20260504033631 1 194 0.0 0.0 0.00 0.00 0.00 1 1008.3
20260504033534 1 194 0.0 0.0 0.00 0.00 0.00 1 1008.4
20260504033437 1 194 0.0 0.0 0.00 0.00 0.00 1 1008.3
20260504033400 1 194 0.0 0.0 0.00 0.00 0.00 1 1008.3
20260504033322 1 194 0.0 0.0 0.00 0.00 0.00 1 1008.4
20260504033124 1 194 0.0 0.0 0.00 0.00 0.00 1 1008.3
20260504033047 1 194 0.0 0.0 0.00 0.00 0.00 1 1008.3
20260504032935 1 194 0.0 0.0 0.00 0.00 0.00 1 1008.3
20260504032906 1 194 0.0 0.0 0.00 0.00 0.00 1 1008.2
20260504032737 1 194 0.0 0.0 0.00 0.00 0.00 1 1008.2
20260504032630 1 194 0.0 0.0 0.00 0.00 0.00 1 1008.2
20260504032500 1 194 0.0 0.0 0.00 0.00 0.00 1 1008.4
20260504032401 1 194 0.0 0.0 0.00 0.00 0.00 1 1008.4
20260504032223 1 194 0.0 0.0 0.00 0.00 0.00 1 1008.3
20260504032144 1 194 0.0 0.0 0.00 0.00 0.00 1 1008.3
20260504032026 1 194 0.0 0.0 0.00 0.00 0.00 1 1008.3
20260504031948 1 194 0.0 0.0 0.00 0.00 0.00 1 1008.3
20260504031729 1 194 0.0 0.0 0.00 0.00 0.00 1 1008.3
20260504031634 1 194 0.0 0.0 0.00 0.00 0.00 1 1008.3
20260504031537 1 194 0.0 0.0 0.00 0.00 0.00 1 1008.3
20260504031500 1 194 0.0 0.0 0.00 0.00 0.00 1 1008.3
20260504031421 1 194 0.0 0.0 0.00 0.00 0.00 1 1008.3
20260504031224 1 194 0.0 0.0 0.00 0.00 0.00 1 1008.3
20260504031146 1 194 0.0 0.0 0.00 0.00 0.00 1 1008.3
20260504031028 1 194 0.0 0.0 0.00 0.00 0.00 1 1008.3
20260504030951 1 194 0.0 0.0 0.00 0.00 0.00 1 1008.3
20260504030914 1 194 0.0 0.0 0.00 0.00 0.00 1 1008.3
20260504030756 1 194 0.0 0.0 0.00 0.00 0.00 1 1008.3
20260504030721 1 194 0.0 0.0 0.00 0.00 0.00 1 1008.3
20260504030526 1 194 0.0 0.0 0.00 0.00 0.00 1 1008.3
20260504030446 1 194 0.0 0.0 0.00 0.00 0.00 1 1008.3
20260504030326 1 194 0.0 0.0 0.00 0.00 0.00 1 1008.3
20260504030218 1 194 0.0 0.0 0.00 0.00 0.00 1 1008.3
20260504030028 1 194 0.0 0.0 0.00 0.00 0.00 1 1008.4
20260504025945 1 194 0.0 0.0 0.00 0.00 0.00 1 1008.4
20260504025816 1 194 0.0 0.0 0.00 0.00 0.00 1 1008.4
20260504025715 1 194 0.0 0.0 0.00 0.00 0.00 1 1008.4
20260504025536 1 194 0.0 0.0 0.00 0.00 0.00 1 1008.4
20260504025503 1 194 0.0 0.0 0.00 0.00 0.00 1 1008.4
20260504025325 1 194 0.0 0.0 0.00 0.00 0.00 1 1008.3
20260504025247 1 194 0.0 0.0 0.00 0.00 0.00 1 1008.3
20260504025207 1 194 0.0 0.0 0.00 0.00 0.00 1 1008.3
20260504025111 1 194 0.0 0.0 0.00 0.00 0.00 1 1008.3
20260504025034 1 194 0.0 0.0 0.00 0.00 0.00 1 1008.3
20260504024837 1 194 0.0 0.0 0.00 0.00 0.00 1 1008.4
20260504024738 1 194 0.0 0.0 0.00 0.00 0.00 1 1008.3
20260504024641 1 194 0.0 0.0 0.00 0.00 0.00 1 1008.3
20260504024550 1 194 0.0 0.0 0.00 0.00 0.00 1 1008.3
20260504024504 1 194 0.0 0.0 0.00 0.00 0.00 1 1008.4
20260504024312 1 194 0.0 0.0 0.00 0.00 0.00 1 1008.4
20260504024234 1 194 0.0 0.0 0.00 0.00 0.00 1 1008.4
20260504024037 1 194 0.0 0.0 0.00 0.00 0.00 1 1008.4
20260504023959 1 194 0.0 0.0 0.00 0.00 0.00 1 1008.4
20260504023823 1 194 0.0 0.0 0.00 0.00 0.00 1 1008.5
20260504023717 1 194 0.0 0.0 0.00 0.00 0.00 1 1008.4
20260504023527 1 194 0.0 0.0 0.00 0.00 0.00 1 1008.5
20260504023445 1 194 0.0 0.0 0.00 0.00 0.00 1 1008.5
20260504023315 1 194 0.0 0.0 0.00 0.00 0.00 1 1008.5
20260504023236 1 194 0.0 0.0 0.00 0.00 0.00 1 1008.5
20260504023058 1 194 0.0 0.0 0.00 0.00 0.00 1 1008.5
20260504023019 1 194 0.0 0.0 0.00 0.00 0.00 1 1008.5
20260504022823 1 194 0.0 0.0 0.00 0.00 0.00 1 1008.5
20260504022725 1 194 0.0 0.0 0.00 0.00 0.00 1 1008.5
20260504022629 1 194 0.0 0.0 0.00 0.00 0.00 1 1008.5
20260504022530 1 194 0.0 0.0 0.00 0.00 0.00 1 1008.6
20260504022454 1 194 0.0 0.0 0.00 0.00 0.00 1 1008.6
20260504022359 1 194 0.0 0.0 0.00 0.00 0.00 1 1008.5
20260504022321 1 194 0.0 0.0 0.00 0.00 0.00 1 1008.6
20260504022124 1 194 0.0 0.0 0.00 0.00 0.00 1 1008.6
20260504022026 1 194 0.0 0.0 0.00 0.00 0.00 1 1008.6
20260504021941 1 194 0.0 0.0 0.00 0.00 0.00 1 1008.6
20260504021842 1 194 0.0 0.0 0.00 0.00 0.00 1 1008.5
20260504021712 1 194 0.0 0.0 0.00 0.00 0.00 1 1008.6
20260504021607 1 194 0.0 0.0 0.00 0.00 0.00 1 1008.6
20260504021437 1 194 0.0 0.0 0.00 0.00 0.00 1 1008.6
20260504021338 1 194 0.0 0.0 0.00 0.00 0.00 1 1008.6
20260504021219 1 194 0.0 3.2 0.00 0.00 0.00 1 1008.6
20260504021138 1 194 0.0 3.2 0.00 0.00 0.00 1 1008.6
20260504021009 1 194 0.0 3.2 0.00 0.00 0.00 1 1008.6
20260504020930 1 194 0.0 3.2 0.00 0.00 0.00 1 1008.6
20260504020732 1 194 0.0 3.2 0.00 0.00 0.00 1 1008.6
20260504020656 1 194 0.0 3.2 0.00 0.00 0.00 1 1008.6
20260504020559 1 194 0.0 3.2 0.00 0.00 0.00 1 1008.6
20260504020500 1 194 0.0 3.2 0.00 0.00 0.00 1 1008.6
20260504020421 1 194 0.0 1.6 0.00 0.00 0.00 1 1008.6
20260504020223 1 194 0.0 0.0 0.00 0.00 0.00 1 1008.6
20260504020145 1 194 0.0 0.0 0.00 0.00 0.00 1 1008.6
20260504020028 1 194 0.0 0.0 0.00 0.00 0.00 1 1008.6
20260504015931 1 194 0.0 0.0 0.00 0.00 0.00 1 1008.6
20260504015855 1 194 0.0 0.0 0.00 0.00 0.00 1 1008.6
20260504015759 1 194 0.0 0.0 0.00 0.00 0.00 1 1008.6
20260504015720 1 194 0.0 0.0 0.00 0.00 0.00 1 1008.6
20260504015523 1 194 0.0 0.0 0.00 0.00 0.00 1 1008.6
20260504015425 1 194 0.0 0.0 0.00 0.00 0.00 1 1008.6
20260504015328 1 194 0.0 0.0 0.00 0.00 0.00 1 1008.6
20260504015250 2 194 0.0 0.0 0.00 0.00 0.00 1 1008.6
20260504015211 2 194 0.0 0.0 0.00 0.00 0.00 1 1008.6
20260504015114 2 194 0.0 0.0 0.00 0.00 0.00 1 1008.8
20260504015040 2 194 0.0 0.0 0.00 0.00 0.00 1 1008.7
20260504014911 2 194 0.0 1.6 0.00 0.00 0.00 1 1008.7
20260504014824 2 194 0.0 1.6 0.00 0.00 0.00 1 1008.8
20260504014635 2 194 0.0 1.6 0.00 0.00 0.00 1 1008.7
20260504014552 2 194 0.0 1.6 0.00 0.00 0.00 1 1008.8
20260504014414 2 194 0.0 1.6 0.00 0.00 0.00 1 1008.8
20260504014350 2 194 0.0 1.6 0.00 0.00 0.00 1 1008.8
20260504014311 2 194 0.0 1.6 0.00 0.00 0.00 1 1008.7
20260504014155 2 194 0.0 1.6 0.00 0.00 0.00 1 1008.8
20260504014026 2 194 0.0 1.6 0.00 0.00 0.00 1 1008.7
20260504013859 2 194 0.0 1.6 0.00 0.00 0.00 1 1008.7
20260504013802 2 194 0.0 1.6 0.00 0.00 0.00 1 1008.7
20260504013717 2 194 0.0 0.0 0.00 0.00 0.00 1 1008.7
20260504013546 2 194 0.0 1.6 0.00 0.00 0.00 1 1008.7
20260504013448 2 194 0.0 1.6 0.00 0.00 0.00 1 1008.7
20260504013323 2 194 0.0 1.6 0.00 0.00 0.00 1 1008.7
20260504013226 2 194 0.0 1.6 0.00 0.00 0.00 1 1008.7
20260504013146 2 194 0.0 1.6 0.00 0.00 0.00 1 1008.7
20260504013017 2 194 0.0 1.6 0.00 0.00 0.00 1 1008.7
20260504012932 2 194 0.0 1.6 0.00 0.00 0.00 1 1008.6
20260504012751 2 194 0.0 1.6 0.00 0.00 0.00 1 1008.6
20260504012603 2 194 0.0 0.0 0.00 0.00 0.00 1 1008.6
20260504012505 2 194 0.0 0.0 0.00 0.00 0.00 1 1008.6
20260504012328 2 194 0.0 0.0 0.00 0.00 0.00 1 1008.6
20260504012251 2 194 0.0 0.0 0.00 0.00 0.00 1 1008.6
20260504012207 2 194 0.0 0.0 0.00 0.00 0.00 1 1008.5
20260504012017 2 194 0.0 0.0 0.00 0.00 0.00 1 1008.6
20260504011919 2 194 0.0 0.0 0.00 0.00 0.00 1 1008.5
20260504011821 2 194 0.0 0.0 0.00 0.00 0.00 1 1008.5
20260504011743 2 194 0.0 0.0 0.00 0.00 0.00 1 1008.5
20260504011612 3 194 0.0 0.0 0.00 0.00 0.00 1 1008.5
20260504011527 3 194 0.0 0.0 0.00 0.00 0.00 1 1008.5
20260504011357 3 194 0.0 1.6 0.00 0.00 0.00 1 1008.4
20260504011301 3 194 0.0 1.6 0.00 0.00 0.00 1 1008.4
20260504011123 3 194 0.0 1.6 0.00 0.00 0.00 1 1008.5
20260504011043 3 194 0.0 1.6 0.00 0.00 0.00 1 1008.5
20260504010916 3 194 0.0 1.6 0.00 0.00 0.00 1 1008.4
20260504010831 3 194 0.0 1.6 0.00 0.00 0.00 1 1008.4
20260504010642 3 194 0.0 1.6 0.00 0.00 0.00 1 1008.4
20260504010526 3 194 0.0 1.6 0.00 0.00 0.00 1 1008.3
20260504010453 3 194 0.0 1.6 0.00 0.00 0.00 1 1008.3
20260504010336 3 194 0.0 1.6 0.00 0.00 0.00 2 1008.3
20260504010302 3 194 0.0 1.6 0.00 0.00 0.00 3 1008.3
20260504010045 3 194 0.0 0.0 0.00 0.00 0.00 4 1008.3
20260504010005 3 194 0.0 0.0 0.00 0.00 0.00 5 1008.3
20260504005910 3 194 0.0 0.0 0.00 0.00 0.00 6 1008.3
20260504005832 3 194 0.0 0.0 0.00 0.00 0.00 6 1008.3
20260504005636 3 194 0.0 0.0 0.00 0.00 0.00 9 1008.2
20260504005538 3 194 0.0 1.6 0.00 0.00 0.00 9 1008.2
20260504005441 3 194 0.0 1.6 0.00 0.00 0.00 10 1008.2
20260504005344 3 194 0.0 1.6 0.00 0.00 0.00 10 1008.2
20260504005308 3 194 0.0 1.6 0.00 0.00 0.00 11 1008.2
20260504005210 3 194 0.0 1.6 0.00 0.00 0.00 11 1008.1
20260504005133 3 194 0.0 1.6 0.00 0.00 0.00 12 1008.1
20260504004937 3 194 0.0 1.6 0.00 0.00 0.00 13 1008.2
20260504004838 3 194 0.0 1.6 0.00 0.00 0.00 13 1008.1
20260504004723 3 194 0.0 1.6 0.00 0.00 0.00 14 1008.1
20260504004654 3 194 0.0 0.0 0.00 0.00 0.00 15 1008.1
20260504004437 4 194 0.0 0.0 0.00 0.00 0.00 18 1008.2
20260504004358 4 194 0.0 0.0 0.00 0.00 0.00 18 1008.2
20260504004234 4 194 0.0 0.0 0.00 0.00 0.00 18 1008.1
20260504004156 4 194 0.0 0.0 0.00 0.00 0.00 18 1008.1
20260504004039 4 194 0.0 0.0 0.00 0.00 0.00 19 1008.2
20260504003958 4 194 0.0 0.0 0.00 0.00 0.00 19 1008.2
20260504003839 4 194 0.0 0.0 0.00 0.00 0.00 21 1008.1
20260504003758 4 194 0.0 0.0 0.00 0.00 0.00 22 1008.1
20260504003700 4 194 0.0 0.0 0.00 0.00 0.00 23 1008.2
20260504003618 4 194 0.0 0.0 0.00 0.00 0.00 23 1008.1
20260504003446 5 194 0.0 0.0 0.00 0.00 0.00 24 1008.1
20260504003322 5 194 0.0 0.0 0.00 0.00 0.00 25 1008.1
20260504003234 5 194 0.0 0.0 0.00 0.00 0.00 25 1008.1
20260504003133 5 194 0.0 0.0 0.00 0.00 0.00 26 1008.1
20260504003034 5 194 0.0 0.0 0.00 0.00 0.00 26 1008.1
20260504002952 5 194 0.0 0.0 0.00 0.00 0.00 26 1008.1
20260504002818 5 194 0.0 0.0 0.00 0.00 0.00 27 1008.1
20260504002729 5 194 0.0 0.0 0.00 0.00 0.00 28 1008.1
20260504002559 5 194 0.0 0.0 0.00 0.00 0.00 29 1008.1
20260504002443 5 194 0.0 0.0 0.00 0.00 0.00 30 1008.1
20260504002339 5 194 0.0 0.0 0.00 0.00 0.00 30 1008.1
20260504002304 5 194 0.0 0.0 0.00 0.00 0.00 31 1008.1
20260504002206 5 194 0.0 0.0 0.00 0.00 0.00 32 1008.1
20260504002127 5 194 0.0 0.0 0.00 0.00 0.00 32 1008.1
20260504001930 5 194 0.0 0.0 0.00 0.00 0.00 33 1008.1
20260504001842 5 194 0.0 0.0 0.00 0.00 0.00 34 1008.0
20260504001723 6 194 0.0 0.0 0.00 0.00 0.00 35 1008.1
20260504001646 6 194 0.0 0.0 0.00 0.00 0.00 35 1008.1
20260504001602 6 194 0.0 0.0 0.00 0.00 0.00 36 1008.1
20260504001411 6 194 0.0 0.0 0.00 0.00 0.00 36 1008.1
20260504001315 6 194 0.0 0.0 0.00 0.00 0.00 36 1008.1
20260504001139 6 194 0.0 0.0 0.00 0.00 0.00 37 1008.1
20260504001041 6 194 0.0 0.0 0.00 0.00 0.00 37 1008.1
20260504000924 6 194 0.0 0.0 0.00 0.00 0.00 37 1008.1
20260504000845 6 194 0.0 0.0 0.00 0.00 0.00 37 1008.1
20260504000709 6 194 0.0 0.0 0.00 0.00 0.00 37 1008.0
20260504000632 6 194 0.0 0.0 0.00 0.00 0.00 37 1008.1
20260504000416 6 194 0.0 0.0 0.00 0.00 0.00 37 1008.0
20260504000330 6 194 0.0 0.0 0.00 0.00 0.00 36 1008.0
20260504000234 6 194 0.0 0.0 0.00 0.00 0.00 36 1008.0
20260504000153 6 194 0.0 1.6 0.00 0.00 0.00 36 1008.0
20260504000025 6 194 0.0 1.6 0.00 0.00 0.00 37 1008.0
20260503235918 7 194 0.0 1.6 0.00 0.05 0.00 36 1007.9
20260503235728 7 194 0.0 3.2 0.00 0.05 0.00 37 1008.0
20260503235640 7 194 0.0 3.2 0.00 0.05 0.00 37 1008.0
20260503235544 7 194 0.0 3.2 0.00 0.05 0.00 37 1008.0
20260503235438 7 194 0.0 3.2 0.00 0.05 0.00 38 1008.0
20260503235337 7 194 0.0 3.2 0.00 0.05 0.00 39 1008.0
20260503235245 7 194 0.0 3.2 0.00 0.05 0.00 41 1007.9
20260503235125 7 194 0.0 3.2 0.00 0.05 0.00 41 1007.9
20260503235027 7 194 0.0 3.2 0.00 0.05 0.00 41 1007.9
20260503234949 7 194 0.0 3.2 0.00 0.05 0.00 41 1007.9
20260503234821 7 194 0.0 3.2 0.00 0.05 0.00 41 1007.9
20260503234736 7 194 0.0 3.2 0.00 0.05 0.00 41 1007.9
20260503234527 7 194 1.6 3.2 0.00 0.05 0.00 43 1007.9
20260503234421 7 194 1.6 3.2 0.00 0.05 0.00 43 1007.9
20260503234345 7 194 1.6 3.2 0.00 0.05 0.00 43 1007.9
20260503234244 7 194 1.6 3.2 0.00 0.05 0.00 43 1007.9
20260503234206 8 194 1.6 3.2 0.00 0.05 0.00 44 1007.9
20260503234106 8 194 1.6 3.2 0.00 0.05 0.00 44 1007.9
20260503234011 8 194 1.6 3.2 0.00 0.05 0.00 43 1007.8
20260503233932 8 194 1.6 3.2 0.00 0.05 0.00 43 1007.8
20260503233735 8 194 0.0 0.0 0.00 0.05 0.00 40 1007.9
20260503233636 8 194 0.0 0.0 0.00 0.05 0.00 38 1007.8
20260503233530 8 194 0.0 0.0 0.00 0.05 0.00 40 1007.9
20260503233452 8 194 0.0 0.0 0.00 0.05 0.00 40 1007.9
20260503233407 8 194 0.0 0.0 0.00 0.05 0.00 42 1007.9
20260503233331 8 194 0.0 0.0 0.00 0.05 0.00 44 1007.8
20260503233231 8 194 0.0 0.0 0.00 0.05 0.00 47 1007.8
20260503233126 8 194 0.0 0.0 0.00 0.05 0.00 47 1007.8
20260503232938 8 194 0.0 0.0 0.00 0.05 0.00 49 1007.8
20260503232852 8 194 0.0 0.0 0.00 0.05 0.00 49 1007.8
20260503232722 8 194 0.0 0.0 0.00 0.05 0.00 50 1007.8
20260503232643 8 194 0.0 0.0 0.00 0.05 0.00 51 1007.8
20260503232507 8 194 0.0 0.0 0.00 0.05 0.00 52 1007.8
20260503232429 8 194 0.0 0.0 0.00 0.05 0.00 52 1007.8
20260503232239 8 194 0.0 0.0 0.00 0.05 0.00 52 1007.7
20260503232135 8 194 0.0 0.0 0.00 0.05 0.00 52 1007.7
20260503232059 8 194 0.0 0.0 0.00 0.05 0.00 52 1007.7
20260503232004 9 194 0.0 0.0 0.00 0.05 0.00 52 1007.7
20260503231925 9 194 0.0 0.0 0.00 0.05 0.00 52 1007.7
20260503231754 9 194 0.0 0.0 0.00 0.05 0.00 52 1007.7
20260503231647 9 194 0.0 0.0 0.00 0.05 0.00 52 1007.7
20260503231517 9 194 0.0 0.0 0.00 0.05 0.00 52 1007.6
20260503231439 9 194 0.0 0.0 0.00 0.05 0.00 52 1007.7
20260503231241 9 194 0.0 0.0 0.00 0.05 0.00 53 1007.7
20260503231141 9 194 0.0 0.0 0.00 0.05 0.00 53 1007.7
20260503231026 9 194 0.0 0.0 0.00 0.05 0.00 53 1007.7
20260503230951 9 194 0.0 0.0 0.00 0.05 0.00 53 1007.7
20260503230822 9 194 0.0 0.0 0.00 0.05 0.00 53 1007.7
20260503230714 9 194 0.0 0.0 0.00 0.05 0.00 53 1007.7
20260503230526 9 194 0.0 0.0 0.00 0.05 0.00 53 1007.7
20260503230439 9 194 0.0 0.0 0.00 0.05 0.00 51 1007.7
20260503230308 9 194 0.0 3.2 0.00 0.05 0.00 49 1007.7
20260503230208 9 194 0.0 3.2 0.00 0.05 0.00 48 1007.7
20260503230052 9 194 0.0 3.2 0.00 0.05 0.00 50 1007.7
20260503225931 9 194 0.0 3.2 0.00 0.08 0.00 49 1007.7
20260503225834 9 194 0.0 3.2 0.00 0.08 0.00 48 1007.7
20260503225757 9 194 0.0 3.2 0.00 0.08 0.00 49 1007.7
20260503225724 9 194 0.0 3.2 0.00 0.08 0.00 49 1007.7
20260503225527 9 194 1.6 3.2 0.00 0.08 0.00 49 1007.7
20260503225450 9 194 1.6 3.2 0.00 0.08 0.00 50 1007.7
20260503225336 9 194 0.0 1.6 0.00 0.08 0.00 50 1007.7
20260503225257 9 194 0.0 1.6 0.00 0.08 0.00 47 1007.7
20260503225108 9 194 0.0 0.0 0.00 0.08 0.00 46 1007.7
20260503224922 9 194 0.0 0.0 0.00 0.08 0.00 47 1007.7
20260503224825 9 194 0.0 1.6 0.00 0.08 0.00 45 1007.7
20260503224747 9 194 0.0 1.6 0.00 0.08 0.00 45 1007.7
20260503224713 9 194 0.0 1.6 0.00 0.08 0.00 46 1007.7
20260503224617 9 194 0.0 1.6 0.00 0.08 0.00 48 1007.8
20260503224517 9 194 0.0 1.6 0.00 0.08 0.00 48 1007.8
20260503224347 9 194 0.0 3.2 0.00 0.08 0.00 48 1007.8
20260503224240 9 194 0.0 3.2 0.00 0.08 0.00 48 1007.8
20260503224048 9 194 0.0 3.2 0.00 0.08 0.00 48 1007.8
20260503223951 9 194 0.0 3.2 0.00 0.08 0.00 48 1007.8
20260503223908 9 194 0.0 3.2 0.00 0.08 0.00 47 1007.8
20260503223646 9 194 1.6 4.8 0.00 0.08 0.00 47 1007.8
20260503223547 9 194 1.6 4.8 0.00 0.08 0.00 47 1007.8
20260503223509 9 194 0.0 4.8 0.00 0.08 0.00 46 1007.8
20260503223330 9 194 1.6 6.4 0.00 0.08 0.00 46 1007.8
20260503223225 9 194 1.6 6.4 0.00 0.08 0.00 46 1007.8
20260503223150 9 194 1.6 6.4 0.00 0.08 0.00 46 1007.8
20260503223121 9 194 1.6 6.4 0.00 0.08 0.00 47 1007.8
20260503223037 9 194 1.6 6.4 0.00 0.08 0.00 47 1007.8
20260503222907 9 194 3.2 6.4 0.00 0.08 0.00 45 1007.7
20260503222818 9 194 3.2 6.4 0.00 0.08 0.00 45 1007.7
20260503222622 9 184 3.2 6.4 0.00 0.08 0.00 46 1007.7
20260503222545 9 203 3.2 6.4 0.00 0.08 0.00 46 1007.7
20260503222450 9 223 1.6 4.8 0.00 0.08 0.00 46 1007.7
20260503222347 9 261 1.6 4.8 0.00 0.08 0.00 47 1007.7
20260503222218 10 261 1.6 4.8 0.00 0.08 0.00 46 1007.7
20260503222122 10 261 1.6 4.8 0.00 0.08 0.00 46 1007.7
20260503222006 10 261 0.0 3.2 0.00 0.08 0.00 46 1007.8
20260503221928 10 344 0.0 1.6 0.00 0.08 0.00 46 1007.7
20260503221732 10 344 0.0 3.2 0.00 0.08 0.00 47 1007.7
20260503221635 10 344 0.0 3.2 0.00 0.08 0.00 47 1007.8
20260503221539 10 344 0.0 3.2 0.00 0.08 0.00 47 1007.8
20260503221501 10 344 0.0 3.2 0.00 0.08 0.00 49 1007.8
20260503221330 10 344 0.0 4.8 0.00 0.08 0.00 46 1007.8
20260503221225 10 344 0.0 4.8 0.00 0.08 0.00 46 1007.7
20260503221054 10 344 1.6 6.4 0.00 0.08 0.00 44 1007.7
20260503220931 10 344 1.6 6.4 0.00 0.08 0.00 44 1007.7
20260503220859 10 344 1.6 6.4 0.00 0.08 0.00 46 1007.7
20260503220801 10 29 1.6 6.4 0.00 0.08 0.00 47 1007.7
20260503220644 10 29 1.6 6.4 0.00 0.08 0.00 47 1007.7
20260503220537 10 29 3.2 6.4 0.00 0.08 0.00 46 1007.6
20260503220500 10 29 3.2 6.4 0.00 0.08 0.00 46 1007.6
20260503220405 10 360 4.8 6.4 0.00 0.08 0.00 47 1007.6
20260503220326 10 338 4.8 6.4 0.00 0.08 0.00 47 1007.6
20260503220128 10 348 3.2 6.4 0.00 0.08 0.00 48 1007.7
20260503220029 10 298 1.6 4.8 0.00 0.08 0.00 47 1007.6
20260503215936 10 298 0.0 4.8 0.00 0.10 0.00 46 1007.7
20260503215858 10 206 0.0 3.2 0.00 0.10 0.00 45 1007.7
20260503215819 10 206 0.0 3.2 0.00 0.10 0.00 45 1007.6
20260503215702 10 206 0.0 4.8 0.00 0.10 0.00 45 1007.6
20260503215624 10 217 0.0 4.8 0.00 0.10 0.00 46 1007.7
20260503215429 10 217 1.6 4.8 0.00 0.10 0.00 48 1007.6
20260503215331 10 217 1.6 4.8 0.00 0.10 0.00 48 1007.6
20260503215234 10 217 1.6 4.8 0.00 0.10 0.00 47 1007.6
20260503215156 10 217 0.0 4.8 0.00 0.10 0.00 47 1007.6
20260503215119 10 217 0.0 4.8 0.00 0.10 0.00 46 1007.7
20260503214946 10 217 1.6 6.4 0.00 0.10 0.00 45 1007.7
20260503214844 10 217 3.2 6.4 0.00 0.10 0.00 45 1007.7
20260503214805 10 217 3.2 6.4 0.00 0.10 0.00 45 1007.7
20260503214708 10 273 1.6 6.4 0.00 0.10 0.00 47 1007.7
20260503214630 10 273 1.6 6.4 0.00 0.10 0.00 47 1007.7
20260503214435 10 317 0.0 6.4 0.00 0.10 0.00 45 1007.7
20260503214336 10 317 1.6 6.4 0.00 0.10 0.00 45 1007.7
20260503214240 10 317 3.2 6.4 0.00 0.10 0.00 45 1007.7
20260503214201 10 317 3.2 6.4 0.00 0.10 0.00 45 1007.7
20260503214123 10 323 3.2 6.4 0.00 0.10 0.00 45 1007.7
20260503213930 10 336 4.8 6.4 0.00 0.10 0.00 45 1007.7
20260503213853 10 330 4.8 6.4 0.00 0.10 0.00 45 1007.7
20260503213755 10 330 3.2 6.4 0.00 0.10 0.00 46 1007.7
20260503213637 10 319 3.2 4.8 0.00 0.10 0.00 45 1007.6
20260503213540 10 319 3.2 4.8 0.00 0.10 0.00 46 1007.7
20260503213501 10 319 1.6 4.8 0.00 0.10 0.00 47 1007.7
20260503213424 10 296 1.6 4.8 0.00 0.10 0.00 47 1007.6
20260503213254 10 206 1.6 4.8 0.00 0.10 0.00 47 1007.6
20260503213116 10 217 0.0 6.4 0.00 0.10 0.00 47 1007.6
20260503213037 10 217 0.0 6.4 0.00 0.10 0.00 46 1007.6
20260503212845 10 217 3.2 6.4 0.00 0.10 0.00 45 1007.6
20260503212739 10 217 3.2 6.4 0.00 0.10 0.00 45 1007.6
20260503212613 10 242 1.6 6.4 0.00 0.10 0.00 45 1007.6
20260503212536 10 298 1.6 6.4 0.00 0.10 0.00 44 1007.6
20260503212338 10 240 4.8 6.4 0.00 0.10 0.00 45 1007.6
20260503212300 10 232 4.8 6.4 0.00 0.10 0.00 45 1007.6
20260503212141 10 219 3.2 6.4 0.00 0.10 0.00 44 1007.6
20260503212104 10 198 3.2 6.4 0.00 0.10 0.00 45 1007.6
20260503212024 10 257 3.2 6.4 0.00 0.10 0.00 46 1007.6
20260503211827 10 10 3.2 6.4 0.00 0.10 0.00 46 1007.6
20260503211748 10 10 1.6 6.4 0.00 0.10 0.00 47 1007.6
20260503211632 10 326 0.0 4.8 0.00 0.10 0.00 46 1007.6
20260503211559 10 326 1.6 4.8 0.00 0.10 0.00 47 1007.6
20260503211521 10 326 1.6 4.8 0.00 0.10 0.00 47 1007.6
20260503211323 10 326 1.6 4.8 0.00 0.10 0.00 48 1007.5
20260503211243 10 326 1.6 4.8 0.00 0.10 0.00 47 1007.5
20260503211126 10 325 1.6 4.8 0.00 0.10 0.00 45 1007.5
20260503211047 10 325 3.2 4.8 0.00 0.10 0.00 45 1007.5
20260503210923 10 325 3.2 4.8 0.00 0.10 0.00 45 1007.6
20260503210817 10 325 1.6 4.8 0.00 0.10 0.00 47 1007.6
20260503210753 10 325 1.6 4.8 0.00 0.10 0.00 48 1007.6
20260503210534 10 306 1.6 4.8 0.00 0.10 0.00 47 1007.6
20260503210457 10 306 1.6 4.8 0.00 0.10 0.00 46 1007.6
20260503210400 10 306 3.2 4.8 0.00 0.10 0.00 46 1007.6
20260503210323 10 293 1.6 4.8 0.00 0.10 0.00 47 1007.6
20260503210126 10 334 0.0 4.8 0.00 0.10 0.00 49 1007.6
20260503210029 10 334 1.6 4.8 0.00 0.10 0.00 48 1007.6
20260503205931 10 331 1.6 4.8 0.00 0.10 0.00 48 1007.5
20260503205853 10 338 1.6 4.8 0.00 0.10 0.00 47 1007.5
20260503205815 10 317 1.6 4.8 0.00 0.10 0.00 47 1007.6
20260503205623 10 317 1.6 4.8 0.00 0.10 0.00 48 1007.6
20260503205527 9 317 1.6 4.8 0.00 0.10 0.00 47 1007.6
20260503205429 9 319 1.6 6.4 0.00 0.10 0.00 47 1007.6
20260503205352 9 319 3.2 9.7 0.00 0.10 0.00 47 1007.6
20260503205312 9 333 3.2 9.7 0.00 0.10 0.00 48 1007.6
20260503205217 9 87 1.6 9.7 0.00 0.10 0.00 47 1007.6
20260503205138 9 281 0.0 9.7 0.00 0.10 0.00 47 1007.6
20260503205009 9 302 1.6 9.7 0.00 0.10 0.00 47 1007.7
20260503204925 9 309 1.6 9.7 0.00 0.10 0.00 46 1007.6
20260503204723 9 342 3.2 9.7 0.00 0.10 0.00 46 1007.7
20260503204641 9 342 4.8 14.5 0.00 0.10 0.00 46 1007.7
20260503204511 9 322 4.8 14.5 0.00 0.10 0.00 47 1007.7
20260503204434 9 325 4.8 14.5 0.00 0.10 0.00 47 1007.6
20260503204236 9 329 3.2 14.5 0.00 0.10 0.00 48 1007.6
20260503204159 9 331 3.2 14.5 0.00 0.10 0.00 47 1007.6
20260503204023 9 332 6.4 14.5 0.00 0.10 0.00 46 1007.7
20260503203937 9 348 8.0 14.5 0.00 0.10 0.00 46 1007.7
20260503203726 9 9 6.4 12.9 0.00 0.10 0.00 46 1007.6
20260503203641 9 355 3.2 16.1 0.00 0.10 0.00 47 1007.6
20260503203453 9 313 3.2 16.1 0.00 0.10 0.00 48 1007.6
20260503203355 9 304 3.2 16.1 0.00 0.10 0.00 48 1007.6
20260503203316 9 296 4.8 16.1 0.00 0.10 0.00 47 1007.6
20260503203138 9 321 8.0 16.1 0.00 0.10 0.00 46 1007.6
20260503203100 9 340 6.4 16.1 0.00 0.10 0.00 46 1007.6
20260503203016 9 331 6.4 16.1 0.00 0.10 0.00 47 1007.6
20260503202734 9 355 8.0 14.5 0.00 0.10 0.00 48 1007.7
20260503202635 9 327 8.0 14.5 0.00 0.10 0.00 47 1007.7
20260503202437 9 311 8.0 14.5 0.00 0.10 0.00 47 1007.7
20260503202400 9 347 8.0 14.5 0.00 0.10 0.00 48 1007.7
20260503202247 9 336 9.7 14.5 0.00 0.10 0.00 48 1007.7
20260503202149 9 333 9.7 14.5 0.00 0.10 0.00 48 1007.7
20260503202025 9 338 9.7 14.5 0.00 0.10 0.00 46 1007.8
20260503201928 9 337 9.7 14.5 0.00 0.10 0.00 47 1007.8
20260503201850 9 331 9.7 14.5 0.00 0.10 0.00 46 1007.8
20260503201811 9 347 11.3 14.5 0.00 0.10 0.00 46 1007.8
20260503201632 10 355 9.7 14.5 0.00 0.10 0.00 47 1007.8
20260503201555 10 309 8.0 14.5 0.00 0.10 0.00 47 1007.8
20260503201519 10 338 6.4 14.5 0.00 0.10 0.00 47 1007.8
20260503201343 10 348 4.8 14.5 0.00 0.10 0.00 46 1007.8
20260503201244 10 360 6.4 14.5 0.00 0.10 0.00 46 1007.8
20260503201147 10 348 6.4 14.5 0.00 0.10 0.00 47 1007.8
20260503201108 10 346 6.4 14.5 0.00 0.10 0.00 47 1007.8
20260503201007 10 5 6.4 14.5 0.00 0.10 0.00 47 1007.8
20260503200910 10 355 8.0 14.5 0.00 0.10 0.00 47 1007.8
20260503200832 10 327 8.0 14.5 0.00 0.10 0.00 48 1007.7
20260503200636 10 27 3.2 12.9 0.00 0.10 0.00 48 1007.7
20260503200538 10 348 6.4 12.9 0.00 0.10 0.00 49 1007.7
20260503200422 10 350 6.4 12.9 0.00 0.10 0.00 47 1007.8
20260503200348 10 53 6.4 11.3 0.00 0.10 0.00 48 1007.9
20260503200230 10 24 6.4 9.7 0.00 0.10 0.00 48 1007.9
20260503200153 10 329 6.4 9.7 0.00 0.10 0.00 48 1007.9
20260503200112 10 349 6.4 9.7 0.00 0.10 0.00 48 1007.9
20260503195922 10 315 4.8 9.7 0.00 0.10 0.00 49 1007.9
20260503195836 10 348 4.8 12.9 0.00 0.10 0.00 48 1008.0
20260503195705 10 339 6.4 14.5 0.00 0.10 0.00 49 1008.0
20260503195627 9 340 4.8 14.5 0.00 0.10 0.00 48 1007.9
20260503195429 9 346 4.8 14.5 0.00 0.10 0.00 47 1008.0
20260503195355 9 317 6.4 14.5 0.00 0.10 0.00 49 1008.0
20260503195237 9 205 4.8 16.1 0.00 0.10 0.00 48 1008.0
20260503195204 9 224 4.8 16.1 0.00 0.10 0.00 48 1008.0
20260503195118 9 271 6.4 16.1 0.00 0.10 0.00 48 1008.0